Date String (YYYY-MM-DD hh:mm:ss) UTC,Instrument flags,Ambient pressure (hPa),Sample flow (lpm),Bypass flow (lpm),Sample temperature (°C),Ambient temperature (°C),ASC tube jacket temperature (°C),LED temperature (°C),Box temperature (°C),Sample RH (%),Span deviation,Mass concentration (μg/m³),Mass concentration (μg/m³),Mass concentration (μg/m³)
DateTimeUTC,F1_M11,P_M11,Q1_M11,Q2_M11,T1_M11,T2_M11,T3_M11,T4_M11,T5_M11,U1_M11,ZSPAN_M11,X0_M11,X2_M11,X1_M11
2021-11-25 00:00:00,,0832.8,4.99,0.00,21.8,20.9,00.0,31.0,23.4,14.6,0000.0,0015.38,0004.11,0003.18
2021-11-25 00:01:00,,0832.9,5.01,0.00,21.7,20.9,00.0,31.0,23.4,14.6,0000.0,0014.20,0004.15,0003.21
2021-11-25 00:02:00,,0832.9,4.99,0.00,21.7,20.9,00.0,31.0,23.4,14.7,0000.0,0013.91,0004.18,0003.24
2021-11-25 00:03:00,,0832.8,5.01,0.00,21.7,20.9,00.0,30.9,23.4,14.6,0000.0,0013.61,0004.18,0003.26
2021-11-25 00:04:00,,0832.9,4.99,0.00,21.7,20.9,00.0,30.9,23.4,14.6,0000.0,0012.20,0004.20,0003.29
2021-11-25 00:05:00,,0833.0,5.00,0.00,21.7,20.9,00.0,30.9,23.3,14.5,0000.0,0012.48,0004.24,0003.30
2021-11-25 00:06:00,,0833.0,5.01,0.00,21.7,20.9,00.0,30.9,23.3,14.5,0000.0,0012.61,0004.22,0003.32
2021-11-25 00:07:00,,0833.1,5.01,0.00,21.6,20.8,00.0,30.9,23.3,14.5,0000.0,0012.58,0004.19,0003.33
2021-11-25 00:08:00,,0833.0,4.99,0.00,21.6,20.7,00.0,30.9,23.3,14.5,0000.0,0013.37,0004.18,0003.34
2021-11-25 00:09:00,,0833.1,5.01,0.00,21.6,20.7,00.0,30.8,23.3,14.6,0000.0,0013.95,0004.16,0003.34
2021-11-25 00:10:00,,0833.1,4.99,0.00,21.6,20.8,00.0,30.8,23.3,14.6,0000.0,0014.47,0004.18,0003.34
2021-11-25 00:11:00,,0833.1,5.00,0.00,21.6,20.8,00.0,30.8,23.2,14.6,0000.0,0014.64,0004.19,0003.35
2021-11-25 00:12:00,,0833.1,5.00,0.00,21.6,20.8,00.0,30.8,23.2,14.6,0000.0,0014.07,0004.16,0003.36
2021-11-25 00:13:00,,0833.2,5.00,0.00,21.6,20.8,00.0,30.8,23.2,14.5,0000.0,0013.35,0004.08,0003.35
2021-11-25 00:14:00,,0833.2,5.00,0.00,21.6,20.8,00.0,30.8,23.2,14.6,0000.0,0013.08,0004.06,0003.35
2021-11-25 00:15:00,,0833.2,4.99,0.00,21.5,20.8,00.0,30.7,23.2,14.6,0000.0,0013.03,0004.02,0003.33
2021-11-25 00:16:00,,0833.3,5.01,0.00,21.6,20.8,00.0,30.8,23.2,14.5,0000.0,0011.94,0003.97,0003.33
2021-11-25 00:17:00,,0833.3,5.00,0.00,21.7,21.4,00.0,30.8,23.5,14.4,0000.0,0011.38,0003.96,0003.33
2021-11-25 00:18:00,,0833.4,4.99,0.00,21.8,22.3,00.0,30.8,23.8,14.3,0000.0,0011.09,0003.96,0003.33
2021-11-25 00:19:00,,0833.4,4.99,0.00,21.9,22.6,00.0,30.8,24.0,14.1,0000.0,0011.06,0003.97,0003.33
2021-11-25 00:20:00,,0833.4,5.00,0.00,22.0,22.5,00.0,30.9,24.0,14.0,0000.0,0010.48,0003.94,0003.32
2021-11-25 00:21:00,,0833.4,5.00,0.00,22.0,22.3,00.0,30.9,23.9,14.0,0000.0,0010.19,0003.94,0003.33
2021-11-25 00:22:00,,0833.4,5.00,0.00,22.0,22.1,00.0,30.9,23.9,14.1,0000.0,0010.58,0003.91,0003.33
2021-11-25 00:23:00,,0833.4,5.01,0.00,22.0,22.0,00.0,30.9,23.8,14.1,0000.0,0010.75,0003.88,0003.31
2021-11-25 00:24:00,,0833.4,5.00,0.00,22.0,21.9,00.0,30.9,23.8,14.1,0000.0,0011.44,0003.88,0003.31
2021-11-25 00:25:00,,0833.4,5.00,0.00,22.0,21.8,00.0,30.9,23.8,14.1,0000.0,0011.61,0003.88,0003.31
2021-11-25 00:26:00,,0833.4,5.00,0.00,22.0,21.7,00.0,31.0,23.8,14.1,0000.0,0011.55,0003.85,0003.30
2021-11-25 00:27:00,,0833.4,5.01,0.00,22.0,21.6,00.0,31.0,23.8,14.2,0000.0,0011.39,0003.85,0003.31
2021-11-25 00:28:00,,0833.4,5.00,0.00,22.0,21.6,00.0,31.0,23.8,14.3,0000.0,0011.71,0003.86,0003.32
2021-11-25 00:29:00,,0833.5,5.01,0.00,22.0,21.5,00.0,31.0,23.7,14.3,0000.0,0012.10,0003.86,0003.33
2021-11-25 00:30:00,,0833.5,5.00,0.00,22.0,21.4,00.0,31.0,23.6,14.4,0000.0,0011.42,0003.86,0003.34
2021-11-25 00:31:00,,0833.6,5.00,0.00,21.9,21.3,00.0,31.0,23.6,14.4,0000.0,0010.98,0003.90,0003.35
2021-11-25 00:32:00,,0833.5,4.99,0.00,21.9,21.2,00.0,31.0,23.6,14.5,0000.0,0011.07,0003.93,0003.36
2021-11-25 00:33:00,,0833.6,5.00,0.00,21.9,21.2,00.0,31.0,23.5,14.7,0000.0,0010.60,0003.95,0003.37
2021-11-25 00:34:00,,0833.6,4.99,0.00,21.9,21.2,00.0,31.0,23.5,14.6,0000.0,0010.27,0003.98,0003.39
2021-11-25 00:35:00,,0833.6,5.01,0.00,21.8,21.1,00.0,31.0,23.5,14.5,0000.0,0009.73,0004.05,0003.41
2021-11-25 00:36:00,,0833.6,5.01,0.00,21.8,21.1,00.0,30.9,23.5,14.5,0000.0,0009.59,0004.05,0003.42
2021-11-25 00:37:00,,0833.7,5.00,0.00,21.8,21.1,00.0,30.9,23.5,14.4,0000.0,0009.53,0004.07,0003.45
2021-11-25 00:38:00,,0833.7,4.99,0.00,21.8,21.0,00.0,30.9,23.4,14.5,0000.0,0009.40,0004.07,0003.45
2021-11-25 00:39:00,,0833.7,5.00,0.00,21.8,20.9,00.0,30.9,23.4,14.5,0000.0,0009.14,0004.04,0003.46
2021-11-25 00:40:00,,0833.7,4.99,0.00,21.7,20.9,00.0,30.9,23.4,14.6,0000.0,0009.28,0004.04,0003.47
2021-11-25 00:41:00,,0833.7,5.00,0.00,21.7,20.9,00.0,30.9,23.4,14.5,0000.0,0009.50,0004.06,0003.48
2021-11-25 00:42:00,,0833.7,5.00,0.00,21.7,20.9,00.0,30.9,23.3,14.5,0000.0,0009.20,0004.03,0003.49
2021-11-25 00:43:00,,0833.7,5.01,0.00,21.7,20.9,00.0,30.8,23.3,14.5,0000.0,0009.07,0004.04,0003.51
2021-11-25 00:44:00,,0833.8,4.99,0.00,21.7,20.9,00.0,30.8,23.3,14.5,0000.0,0009.16,0004.04,0003.52
2021-11-25 00:45:00,,0833.8,5.00,0.00,21.6,20.9,00.0,30.8,23.3,14.5,0000.0,0009.97,0004.03,0003.53
2021-11-25 00:46:00,,0833.8,4.99,0.00,21.6,20.8,00.0,30.8,23.3,14.5,0000.0,0010.82,0004.01,0003.55
2021-11-25 00:47:00,,0833.8,4.99,0.00,21.6,20.8,00.0,30.8,23.2,14.6,0000.0,0010.79,0004.01,0003.57
2021-11-25 00:48:00,,0833.8,5.02,0.00,21.5,20.8,00.0,30.8,23.2,14.7,0000.0,0010.82,0004.04,0003.59
2021-11-25 00:49:00,,0833.9,4.99,0.00,21.6,21.0,00.0,30.8,23.3,14.7,0000.0,0010.84,0004.06,0003.61
2021-11-25 00:50:00,,0833.9,5.00,0.00,21.7,21.7,00.0,30.8,23.5,14.6,0000.0,0011.05,0004.12,0003.63
2021-11-25 00:51:00,,0833.9,5.00,0.00,21.8,22.6,00.0,30.8,23.8,14.5,0000.0,0010.83,0004.17,0003.65
2021-11-25 00:52:00,,0833.9,5.00,0.00,22.0,22.9,00.0,30.9,24.0,14.4,0000.0,0010.85,0004.17,0003.66
2021-11-25 00:53:00,,0834.0,5.00,0.00,22.0,22.7,00.0,30.9,24.0,14.3,0000.0,0010.80,0004.21,0003.68
2021-11-25 00:54:00,,0834.0,5.01,0.00,22.0,22.5,00.0,30.9,23.9,14.3,0000.0,0010.63,0004.24,0003.69
2021-11-25 00:55:00,,0834.0,5.00,0.00,22.0,22.2,00.0,30.9,23.8,14.3,0000.0,0010.15,0004.21,0003.70
2021-11-25 00:56:00,,0834.1,5.00,0.00,22.0,22.0,00.0,30.9,23.8,14.3,0000.0,0009.33,0004.24,0003.72
2021-11-25 00:57:00,,0834.0,4.99,0.00,22.0,21.9,00.0,30.9,23.8,14.3,0000.0,0009.36,0004.26,0003.73
2021-11-25 00:58:00,,0834.0,5.01,0.00,22.0,21.8,00.0,31.0,23.8,14.4,0000.0,0009.68,0004.28,0003.75
2021-11-25 00:59:00,,0834.1,5.01,0.00,22.0,21.7,00.0,31.0,23.7,14.4,0000.0,0010.11,0004.29,0003.77
